North Platte, NE

4:22 AM CDT on September 26, 2017 (GMT -0500)
North Platte Regional-Bird

Weather History for KLBF - December, 2012

Change the Weather History Date:

Thursday, December 6, 2012

  Actual Average Record
Temperature  
Mean Temperature 35 °F 27 °F  
Max Temperature 49 °F 41 °F 76 °F (1939)
Min Temperature 21 °F 13 °F -15 °F (1972)
Degree Days  
Heating Degree Days 30 38  
Month to date heating degree days 144 225  
Since 1 July heating degree days 1631 1776  
Cooling Degree Days 0 0  
Month to date cooling degree days 0 0  
Year to date cooling degree days 1245 768  
Moisture  
Dew Point 21 °F    
Average Humidity 48    
Maximum Humidity 70    
Minimum Humidity 25    
Precipitation  
Precipitation T in 0.01 in 0.42 in (1883)
Month to date precipitation T 0.08  
Year to date precipitation 9.67 19.90  
Snow  
Snow T in 0.10 in 3.40 in (1994)
Month to date snowfall T 0.8  
Since 1 July snowfall 2.7 7.0  
Snow Depth 0.00 in    
Sea Level Pressure  
Sea Level Pressure 29.97 in    
Wind  
Wind Speed 10 mph (North)    
Max Wind Speed 21 mph    
Max Gust Speed 33 mph    
Visibility 10 miles    
Events Rain    
T = Trace of Precipitation, MM = Missing Value Source: NWS Daily Summary

Daily Weather History Graph

Daily Weather History Graph

Search for Another Location

Airport or City:

Trip Planner

Search our weather history database for the weather conditions in past years. The results will help you decide how hot, cold, wet, or windy it might be!

Date:

Astronomy

Dec. 06, 2012 Rise Set
Actual Time 7:54 AM CST 5:13 PM CST
Civil Twilight 7:23 AM CST 5:44 PM CST
Nautical Twilight 6:48 AM CST 6:19 PM CST
Astronomical Twilight 6:15 AM CST 6:52 PM CST
Moon 12:08 AM CST (12/6) 12:44 PM CST (12/6)
Length of Visible Light 10h 21m
Length of Day
9h 19m
Waning Gibbous, 49% of the Moon is Illuminated
Dec 6
Waning Gibbous
Dec 13
New
Dec 19
First Quarter
Dec 28
Full
Jan 4
Last Quarter

Hourly Weather History & Observations

Time (CST) Temp. Windchill Dew Point Humidity Pressure Visibility Wind Dir Wind Speed Gust Speed Precip Events Conditions
12:53 AM 37.0 °F 34.5 °F 26.1 °F 65% 29.83 in 10.0 mi North 3.5 mph - N/A   Clear
1:53 AM 39.9 °F 35.8 °F 27.0 °F 60% 29.83 in 10.0 mi Variable 5.8 mph - N/A   Clear
2:53 AM 36.0 °F 30.3 °F 26.1 °F 67% 29.83 in 10.0 mi NW 6.9 mph - N/A   Clear
3:53 AM 33.1 °F 28.7 °F 25.0 °F 72% 29.86 in 10.0 mi WNW 4.6 mph - N/A   Clear
4:53 AM 39.9 °F 31.1 °F 30.0 °F 68% 29.89 in 10.0 mi NNE 17.3 mph 20.7 mph N/A   Scattered Clouds
5:53 AM 45.0 °F 36.9 °F 25.0 °F 46% 29.90 in 10.0 mi NNE 20.7 mph 28.8 mph N/A   Clear
6:53 AM 42.1 °F 34.5 °F 21.9 °F 45% 29.94 in 10.0 mi NNE 15.0 mph - N/A   Clear
7:53 AM 39.9 °F 33.4 °F 21.9 °F 49% 29.97 in 10.0 mi North 10.4 mph - N/A   Clear
8:53 AM 39.9 °F 35.8 °F 21.0 °F 47% 30.01 in 10.0 mi NW 5.8 mph - N/A   Clear
9:53 AM 43.0 °F 36.8 °F 19.0 °F 38% 30.03 in 10.0 mi NNW 11.5 mph - N/A   Mostly Cloudy
10:53 AM 44.1 °F 36.8 °F 12.9 °F 28% 30.04 in 10.0 mi North 16.1 mph - N/A   Clear
11:53 AM 46.0 °F 39.0 °F 12.9 °F 26% 30.04 in 10.0 mi North 17.3 mph - N/A   Clear
12:53 PM 44.1 °F 37.7 °F 15.1 °F 31% 30.04 in 10.0 mi North 12.7 mph - N/A   Partly Cloudy
1:53 PM 48.0 °F - 16.0 °F 28% 30.02 in 10.0 mi North 13.8 mph 20.7 mph N/A   Partly Cloudy
2:53 PM 45.0 °F 39.3 °F 21.9 °F 40% 30.01 in 10.0 mi NNE 11.5 mph 20.7 mph 0.00 in Rain Light Rain
3:53 PM 44.1 °F 38.6 °F 24.1 °F 45% 30.02 in 10.0 mi NNE 10.4 mph - N/A   Partly Cloudy
4:53 PM 39.0 °F 34.8 °F 21.9 °F 50% 30.02 in 10.0 mi NNE 5.8 mph - N/A   Partly Cloudy
5:53 PM 32.0 °F 28.7 °F 19.9 °F 61% 30.02 in 10.0 mi NNE 3.5 mph - N/A   Clear
6:53 PM 28.0 °F - 18.0 °F 66% 30.03 in 10.0 mi Calm Calm - N/A   Clear